Home   Weather   Amersfoort   Past weeks

Flag for Netherlands Past Weather in Amersfoort, Netherlands — Yesterday and Last 2 Weeks

Now
59 °F

Scattered clouds.


Feels Like: 58 °F
Forecast: 48 / 53 °F
Wind: 7 mph from East

Location: Deelen

Current Time: Apr 30, 2017 at 8:55:04 pm

Latest Report: Apr 30, 2017 at 8:25 pm


Visibility: N/A

Pressure: 29.71 "Hg

Humidity: 45%

Dew Point: 37 °F

Location of AmersfoortLocation

Past Weather in Amersfoort — Graph

°F

Amersfoort Temperature Yesterday

Maximum temperature yesterday: 55 °F (at 4:55 pm)
Minimum temperature yesterday: 30 °F (at 3:25 am)
Average temperature yesterday: 43 °F

High & Low Weather Summary for the Past Weeks

 TemperatureHumidityPressure
High66 °F (Apr 30, 3:55 pm)100% (Apr 16, 3:25 am)30.63 "Hg (Apr 16, 3:25 am)
Low23 °F (Apr 20, 6:55 am)28% (Apr 30, 3:55 pm)29.68 "Hg (Apr 25, 2:55 am)
Average43 °F73%30.13 "Hg
* Reported Apr 15 7:25 pm — Apr 30 7:25 pm, Amersfoort, Weather by CustomWeather, © 2017

Note: Actual official high and low records may vary slightly from our data, if they occured in-between our weather recording intervals... More about our weather records

Advertising

Amersfoort Weather History for the Previous 24 Hours

Scroll right to see more
 ConditionsComfort  
Time TempWeatherWind HumidityBarometerVisibility
7:25 pm
Sun, Apr 30
64 °FPassing clouds.14 mph32%29.68 "HgN/A
6:55 pm64 °FPassing clouds.15 mph32%29.71 "HgN/A
6:25 pm66 °FPassing clouds.20 mph30%29.71 "HgN/A
5:55 pm66 °FPassing clouds.18 mph30%29.71 "HgN/A
5:25 pm64 °FPartly sunny.21 mph30%29.74 "HgN/A
4:55 pm66 °FOvercast.21 mph28%29.74 "HgN/A
4:25 pm64 °FOvercast.22 mph30%29.74 "HgN/A
3:55 pm66 °FScattered clouds.21 mph28%29.74 "HgN/A
3:25 pm64 °FScattered clouds.18 mph32%29.77 "HgN/A
2:55 pm64 °FScattered clouds.18 mph32%29.77 "HgN/A
2:25 pm64 °FMild.20 mph32%29.80 "HgN/A
1:55 pm63 °FPassing clouds.23 mph34%29.80 "HgN/A
1:25 pm63 °FMild.22 mph34%29.83 "HgN/A
12:55 pm63 °FPassing clouds.22 mph37%29.83 "HgN/A
12:25 pm61 °FRefreshingly cool.20 mph39%29.86 "HgN/A
11:55 am59 °FPassing clouds.16 mph42%29.86 "HgN/A
11:25 am57 °FRefreshingly cool.15 mph44%29.89 "HgN/A
10:55 am55 °FRefreshingly cool.16 mph44%29.89 "HgN/A
10:25 am54 °FCool.15 mph47%29.89 "HgN/A
9:55 am52 °FCool.14 mph50%29.92 "HgN/A
9:25 am50 °FCool.15 mph50%29.92 "HgN/A
8:55 am48 °FPassing clouds.14 mph54%29.92 "HgN/A
8:25 am45 °FQuite cool.14 mph61%29.95 "HgN/A
7:55 am43 °FPassing clouds.12 mph61%29.95 "HgN/A
7:25 am41 °FPassing clouds.12 mph66%29.95 "HgN/A
6:55 am39 °FChilly.10 mph70%29.95 "HgN/A
6:25 am39 °FPassing clouds.10 mph70%29.95 "HgN/A
5:55 am39 °FChilly.9 mph70%29.98 "HgN/A
5:25 am39 °FPassing clouds.10 mph70%29.98 "HgN/A
4:55 am41 °FPassing clouds.10 mph66%29.98 "HgN/A
4:25 am41 °FPassing clouds.9 mph66%29.98 "HgN/A
3:55 am41 °FPassing clouds.8 mph66%29.98 "HgN/A
3:25 am41 °FPassing clouds.7 mph66%30.01 "HgN/A
2:55 am41 °FPassing clouds.8 mph66%30.01 "HgN/A
2:25 am43 °FPassing clouds.8 mph61%30.01 "HgN/A
1:55 am43 °FPassing clouds.8 mph66%30.01 "HgN/A
1:25 am43 °FPassing clouds.7 mph66%30.01 "HgN/A
12:55 am43 °FPassing clouds.6 mph66%30.01 "HgN/A
12:25 am43 °FPassing clouds.6 mph66%30.01 "HgN/A
11:55 pm
Sat, Apr 29
41 °FPassing clouds.6 mph70%30.01 "HgN/A
11:25 pm41 °FQuite cool.5 mph70%30.01 "HgN/A
10:55 pm39 °FChilly.5 mph75%30.01 "HgN/A
10:25 pm39 °FPassing clouds.5 mph75%30.04 "HgN/A
9:25 pm43 °FQuite cool.5 mph71%30.04 "HgN/A
8:55 pm48 °FCool.3 mph58%30.04 "HgN/A
Weather by CustomWeather, © 2017

See weather overviewHow to use our weather pages